Terug naar catalogus

COSMOS 2251 DEB

ActiefLEO
NORAD 33894·DEBRIS·🇷🇺 Russia

Gelanceerd Jun 16, 1993 vanaf Plesetsk Cosmodrome

Loading…

Volgende Passages (komende 24 uur)

TLE

VersSource: Space-Track

Epoch: Sep 14, 2026, 21:11 UTC

1 33894U 93036CX  26257.88276269  .00000870  00000-0  90969-3 0  9999
2 33894  73.7634 281.6834 0568769 162.1395 200.0626 13.21991213843563

Volg COSMOS 2251 DEB in realtime met AllMySat

Download on the App Store